EW1465 Weather Reports


Display with metric or nautical units.
time (UTC)temp
F
wind
direction
speed
MPH
gust
MPH
rain 1hr
in
rain 24hr
in
rain mn
in
humidity
%
barometer
mb
20210917233041 60 0.0 0.0 0.00 0.01 0.00 95 1024.7
20210917231557 60 0.0 0.0 0.00 0.01 0.00 94 1024.7
20210917230024 61 0.0 0.0 0.00 0.01 0.00 93 1025.0
20210917224536 61 0.0 0.0 0.00 0.01 0.00 92 1025.1
20210917223042 62 0.0 0.0 0.00 0.01 0.00 91 1025.3
20210917221550 63 0.0 0.0 0.00 0.01 0.00 89 1025.5
20210917220022 63 0.0 0.0 0.00 0.01 0.00 88 1025.5
20210917214535 64 0.0 0.0 0.00 0.01 0.00 87 1025.7
20210917213054 65 0.0 0.0 0.00 0.01 0.00 85 1026.0
20210917211541 66 0.0 0.0 0.00 0.01 0.00 82 1026.1
20210917210032 67 0.0 0.0 0.00 0.01 0.00 77 1026.2
20210917204514 68 0.0 0.0 0.00 0.01 0.00 75 1026.2
20210917203034 68 0.0 0.0 0.00 0.01 0.00 73 1026.5
20210917201512 69 0.0 0.0 0.00 0.01 0.00 71 1026.6
20210917200007 70 0.0 0.0 0.00 0.01 0.00 70 1026.3
20210917194506 70 0.0 0.0 0.00 0.01 0.00 71 1026.4
20210917193004 69 0.0 0.0 0.00 0.01 0.00 70 1026.7
20210917191503 68 0.0 0.0 0.00 0.01 0.00 71 1026.9
20210917190321 69 0.0 0.0 0.00 0.01 0.00 70 1026.9
20210917184618 70 0.0 0.0 0.00 0.01 0.00 68 1026.9
20210917183207 70 0.0 0.0 0.00 0.01 0.00 68 1027.0
20210917181818 70 0.0 0.0 0.00 0.01 0.00 66 1027.2
20210917180124 70 0.0 0.0 0.00 0.01 0.00 68 1027.6
20210917174607 68 0.0 0.0 0.00 0.01 0.00 70 1027.8
20210917173123 69 0.0 0.0 0.00 0.01 0.00 69 1027.9
20210917171644 68 0.0 0.0 0.00 0.01 0.00 70 1028.1
20210917170106 68 0.0 0.0 0.00 0.01 0.00 71 1028.3
20210917164623 66 0.0 0.0 0.00 0.01 0.00 71 1028.4
20210917163120 68 0.0 0.0 0.00 0.01 0.00 71 1028.4
20210917161551 68 0.0 0.0 0.00 0.01 0.00 67 1028.5
20210917160211 69 0.0 0.0 0.00 0.01 0.00 72 1028.4
20210917154551 67 0.0 0.0 0.00 0.01 0.00 71 1028.4
20210917153052 67 0.0 0.0 0.00 0.01 0.00 72 1028.4
20210917151545 67 0.0 0.0 0.00 0.01 0.00 71 1028.6
20210917150057 67 0.0 0.0 0.00 0.01 0.00 74 1028.8
20210917144556 65 0.0 0.0 0.00 0.01 0.00 76 1028.9
20210917143053 65 0.0 0.0 0.00 0.01 0.00 77 1029.1
20210917141604 64 0.0 0.0 0.00 0.01 0.00 77 1029.4
20210917140125 66 0.0 0.0 0.00 0.01 0.00 75 1029.5
20210917134607 65 0.0 0.0 0.00 0.01 0.00 77 1029.6
20210917133051 63 0.0 0.0 0.00 0.01 0.00 78 1029.9
20210917131552 62 0.0 0.0 0.00 0.01 0.00 81 1029.9
20210917130020 61 0.0 0.0 0.00 0.01 0.00 82 1030.0
20210917124552 61 0.0 0.0 0.00 0.01 0.00 85 1030.1
20210917123012 59 0.0 0.0 0.00 0.01 0.00 93 1030.2
20210917121515 57 0.0 0.0 0.00 0.01 0.00 98 1030.2
20210917120004 56 0.0 0.0 0.00 0.01 0.00 98 1030.3
20210917114503 53 0.0 0.0 0.00 0.01 0.00 98 1030.3
20210917113132 52 0.0 0.0 0.00 0.01 0.00 98 1030.4
20210917111624 50 0.0 0.0 0.00 0.01 0.00 98 1030.5
20210917110212 49 0.0 0.0 0.00 0.01 0.00 98 1030.6
20210917104714 48 0.0 0.0 0.00 0.01 0.00 98 1030.5
20210917103217 48 0.0 0.0 0.00 0.01 0.00 98 1030.3
20210917101642 47 0.0 0.0 0.00 0.01 0.00 98 1030.1
20210917100114 48 0.0 0.0 0.00 0.01 0.00 98 1029.9
20210917094555 47 0.0 0.0 0.00 0.01 0.00 98 1029.5
20210917093040 47 0.0 0.0 0.00 0.01 0.00 98 1029.2
20210917091600 48 0.0 0.0 0.00 0.01 0.00 98 1029.3
20210917090043 48 0.0 0.0 0.00 0.01 0.00 98 1029.2
20210917084549 48 0.0 0.0 0.00 0.01 0.00 98 1029.0
20210917083107 48 0.0 0.0 0.00 0.01 0.00 98 1029.1
20210917081551 48 0.0 0.0 0.00 0.01 0.00 98 1028.7
20210917080049 47 0.0 0.0 0.00 0.01 0.00 97 1028.6
20210917074614 48 0.0 0.0 0.00 0.02 0.00 98 1028.6
20210917073047 48 0.0 0.0 0.00 0.02 0.00 98 1028.4
20210917071534 48 0.0 0.0 0.00 0.02 0.00 98 1028.4
20210917070049 48 0.0 0.0 0.00 0.02 0.00 98 1028.3
20210917064545 48 0.0 0.0 0.00 0.02 0.00 97 1028.4
20210917063034 48 0.0 0.0 0.00 0.02 0.00 97 1028.5
20210917061542 48 0.0 0.0 0.00 0.02 0.00 97 1028.5
20210917060033 48 0.0 0.0 0.00 0.02 0.00 97 1028.8
20210917054522 48 0.0 0.0 0.00 0.02 0.00 97 1028.9
20210917053034 48 0.0 0.0 0.00 0.02 0.00 97 1028.9
20210917051534 49 0.0 0.0 0.00 0.02 0.00 97 1029.0
20210917050053 49 0.0 0.0 0.00 0.02 0.00 97 1029.0
20210917044522 48 0.0 0.0 0.00 0.02 0.00 97 1028.9
20210917043043 49 0.0 0.0 0.00 0.02 0.00 97 1028.9
20210917041539 49 0.0 0.0 0.00 0.02 0.00 97 1029.0
20210917040023 49 0.0 0.0 0.00 0.02 0.00 97 1029.0
20210917034511 49 0.0 0.0 0.00 0.02 0.02 97 1029.1
20210917033055 50 0.0 0.0 0.00 0.02 0.02 97 1029.1
20210917031511 50 0.0 0.0 0.00 0.02 0.02 97 1029.1
20210917030011 50 0.0 0.0 0.00 0.02 0.02 97 1029.2
20210917024509 51 0.0 0.0 0.00 0.03 0.02 96 1029.4
20210917023004 51 0.0 0.0 0.00 0.03 0.02 96 1029.3
20210917021511 51 0.0 0.0 0.00 0.03 0.02 96 1029.1
20210917020151 51 0.0 0.0 0.00 0.03 0.02 96 1029.1
20210917014650 51 0.0 0.0 0.00 0.03 0.02 96 1028.9
20210917013148 52 0.0 0.0 0.00 0.03 0.02 96 1029.0
20210917011702 52 0.0 0.0 0.00 0.03 0.02 96 1029.0
20210917010102 53 0.0 0.0 0.00 0.03 0.02 95 1029.1
20210917004622 53 0.0 0.0 0.00 0.03 0.02 94 1029.0
20210917003124 54 0.0 0.0 0.00 0.03 0.02 94 1029.0
20210917001601 55 0.0 0.0 0.01 0.03 0.02 94 1028.9
20210917000133 56 0.0 0.0 0.01 0.03 0.02 92 1028.4
20210916234629 57 0.0 0.0 0.01 0.06 0.02 89 1028.2